Flag for Norway Weather past 2 weeks in Ålesund, Norway

Now
45 °F

Drizzle. Overcast.


Feels Like: 42 °F
Forecast: 46 / 53 °F
Wind: 5 mph from Southeast

Location: Alesund / Vigra

Current Time: May 5, 2015 at 1:20:27 AM

Latest Report: May 5, 2015 at 12:50 AM


Visibility: N/A

Pressure: 29.56 "Hg

Humidity: 87%

Dew point: 41 °F

Location of ÅlesundLocation

Historic Weather in Ålesund — Graph

°F

Ålesund temperature yesterday

Maximum temperature yesterday: 59 °F (at 12:50 PM)
Minimum temperature yesterday: 39 °F (at 2:50 AM)
Average temperature yesterday: 48 °F

Past Weeks' High & Low Weather Summary

 TemperatureHumidityPressure
High59 °F (May 4, 12:50 PM)100% (Apr 20, 3:50 AM)30.48 "Hg (Apr 20, 3:50 AM)
Low30 °F (Apr 21, 5:50 AM)36% (May 4, 12:50 PM)29.15 "Hg (Apr 25, 7:50 PM)
Average41 °F77%29.83 "Hg
* Reported Apr 19 11:20 PM — May 4 11:50 PM, Ålesund, Weather by CustomWeather, © 2015

Note: Actual official high and low records may vary slightly from our data, if they occured in-between our weather recording intervals... More about our weather records

Advertising

Ålesund weather history for previous 24 hours

 ConditionsComfort  
Time TempWeatherWind HumidityBarometerVisibility
11:50 PM
Mon, May 4
45 °FLight rain. Partly cloudy.6 mph87%29.56 "HgN/A
10:50 PM46 °FLight rain. Partly sunny.7 mph76%29.56 "HgN/A
10:20 PM46 °FLight rain. Partly sunny.6 mph71%29.56 "HgN/A
9:50 PM46 °FLight rain. Partly sunny.6 mph76%29.53 "HgN/A
9:20 PM48 °FLight rain. Partly sunny.1 mph66%29.56 "HgN/A
8:50 PM48 °FPartly sunny.1 mph66%29.53 "HgN/A
8:20 PM48 °FPartly sunny.3 mph62%29.53 "HgN/A
7:50 PM50 °FPartly sunny.2 mph58%29.53 "HgN/A
7:20 PM50 °FPartly sunny.5 mph62%29.53 "HgN/A
6:50 PM50 °FPartly sunny.6 mph58%29.53 "HgN/A
6:20 PM50 °FBroken clouds.7 mph58%29.53 "HgN/A
5:50 PM50 °FBroken clouds.6 mph54%29.53 "HgN/A
5:20 PM52 °FBroken clouds.7 mph54%29.50 "HgN/A
4:50 PM52 °FBroken clouds.6 mph54%29.50 "HgN/A
4:20 PM52 °FBroken clouds.7 mph54%29.50 "HgN/A
3:50 PM54 °FBroken clouds.7 mph51%29.50 "HgN/A
2:50 PM55 °FPartly sunny.8 mph38%29.50 "HgN/A
2:20 PM57 °FPassing clouds.3 mph41%29.50 "HgN/A
1:50 PM57 °FSunny.2 mph36%29.50 "Hg10 mi
1:20 PM57 °FSunny.6 mph39%29.47 "Hg10 mi
12:50 PM59 °FSunny.7 mph36%29.50 "Hg10 mi
12:20 PM55 °FSunny.8 mph44%29.50 "Hg10 mi
11:50 AM52 °FSunny.12 mph54%29.50 "Hg10 mi
10:50 AM50 °FSunny.13 mph54%29.50 "Hg10 mi
10:20 AM48 °FSunny.12 mph58%29.50 "Hg10 mi
9:50 AM48 °FSunny.15 mph58%29.50 "Hg10 mi
9:20 AM46 °FSunny.16 mph62%29.53 "Hg10 mi
8:50 AM46 °FSunny.15 mph66%29.53 "Hg10 mi
8:20 AM45 °FSunny.14 mph66%29.53 "Hg10 mi
7:50 AM45 °FSunny.15 mph66%29.56 "Hg10 mi
7:20 AM43 °FOvercast.8 mph71%29.59 "HgN/A
6:50 AM43 °FSunny.5 mph71%29.59 "Hg10 mi
6:20 AM41 °FSunny.2 mph70%29.59 "Hg10 mi
5:20 AM41 °FPassing clouds.5 mph70%29.62 "HgN/A
4:50 AM41 °FQuite cool.7 mph70%29.62 "HgN/A
4:20 AM41 °FPassing clouds.9 mph70%29.65 "HgN/A
3:50 AM39 °FPassing clouds.6 mph75%29.65 "HgN/A
3:20 AM41 °FPassing clouds.6 mph70%29.65 "HgN/A
2:50 AM39 °FChilly.8 mph75%29.68 "HgN/A
2:20 AM41 °FQuite cool.3 mph70%29.68 "HgN/A
1:50 AM43 °FQuite cool.16 mph66%29.71 "HgN/A
1:20 AM43 °FQuite cool.15 mph76%29.71 "HgN/A
Weather by CustomWeather, © 2015

See weather overviewHow to use our weather pages